This is the latest recevied weather packets stored in our database for station/object NO3U. If no packets are shown the sender has not sent any weather packets the latest 10 day(s).
| Time | Temp. | Humidity | Pressure | Rain* | Wind** | Luminosity | Snow |
|---|---|---|---|---|---|---|---|
| 1777903173 | 16.11° C | 51% | 1011 hPa | 0 mm | - | 436 W/m² | - |
| 1777902869 | 16.11° C | 52% | 1010.9 hPa | 0 mm | - | 424 W/m² | - |
| 1777902566 | 16.11° C | 53% | 1011 hPa | 0 mm | - | 409 W/m² | - |
| 1777902263 | 15.56° C | 52% | 1011.1 hPa | 0 mm | - | 395 W/m² | - |
| 1777901961 | 15.56° C | 52% | 1011.3 hPa | 0 mm | - | 382 W/m² | - |
| 1777901659 | 15.56° C | 53% | 1011.2 hPa | 0 mm | - | 371 W/m² | - |
| 1777901356 | 15.56° C | 53% | 1011.3 hPa | 0 mm | - | 357 W/m² | - |
| 1777901054 | 15.56° C | 52% | 1011.2 hPa | 0 mm | - | 344 W/m² | - |
| 1777900751 | 15.56° C | 56% | 1011.2 hPa | 0 mm | - | 331 W/m² | - |
| 1777900448 | 15° C | 55% | 1011.2 hPa | 0 mm | - | 318 W/m² | - |
| 1777900145 | 15° C | 53% | 1011.3 hPa | 0 mm | - | 305 W/m² | - |
| 1777899841 | 15° C | 53% | 1011.2 hPa | 0 mm | - | 279 W/m² | - |
| 1777899538 | 15° C | 55% | 1011.2 hPa | 0 mm | - | 117 W/m² | - |
| 1777899236 | 14.44° C | 54% | 1011.2 hPa | 0 mm | - | 146 W/m² | - |
| 1777898933 | 14.44° C | 55% | 1011.2 hPa | 0 mm | - | 251 W/m² | - |
| 1777898630 | 14.44° C | 55% | 1011.3 hPa | 0 mm | - | 247 W/m² | - |
| 1777898327 | 14.44° C | 55% | 1011.3 hPa | 0 mm | - | 223 W/m² | - |
| 1777898025 | 13.89° C | 56% | 1011.2 hPa | 0 mm | - | 209 W/m² | - |
| 1777897720 | 13.89° C | 58% | 1011.1 hPa | 0 mm | - | 195 W/m² | - |
| 1777897417 | 13.33° C | 58% | 1011.3 hPa | 0 mm | - | 181 W/m² | - |
| 1777897113 | 13.89° C | 60% | 1011.3 hPa | 0 mm | - | 169 W/m² | - |
| 1777896810 | 13.33° C | 58% | 1011.1 hPa | 0 mm | - | 154 W/m² | - |
| 1777896507 | 13.33° C | 58% | 1011 hPa | 0 mm | - | 141 W/m² | - |
| 1777896204 | 12.78° C | 61% | 1011.2 hPa | 0 mm | - | 130 W/m² | - |
| 1777895902 | 12.78° C | 60% | 1011 hPa | 0 mm | - | 118 W/m² | - |
* Rain latest hour (hover to see other rain measurements)
** Current wind speed in m/s (hover to see current wind gust speed)